Weather in Canterbury

United Kingdom     51˚16′33″N   1˚04′32″E
temp.,
°C
wind,
m/s
gust,
m/s
humid.,
%
clouds,
%
prec.,
mm/h
press.,
hPa
HPBL,
m
2 december, wed
wed200:00+6˚n597683 0.1 1024489
03:00+4˚nnw488935 0.0 1022174
06:00+3˚nnw349355 0.0 102195
09:00+4˚nw359231 0.0 1020167
12:00+6˚wsw238066 0.0 1017255
15:00+5˚sw4784100 0.0 1014277
18:00+5˚wsw3786100 0.0 1012265
21:00+6˚wnw3891100 0.3 1011404
3 december, thu
thu300:00+4˚w248398 0.3 1008110
03:00+3˚sw3785100 0.0 1005241
06:00+4˚sw3786100 0.1 1001345
09:00+4˚ssw1394100 1.4 998237
12:00+6˚ssw2693100 2.5 993349
15:00+5˚ese2293100 4.3 988129
18:00+5˚se31197100 13.6 984669
21:00+7˚s61290100 5.9 980671
4 december, fri
fri400:00+6˚ssw499398 9.3 977411
03:00+4˚w479266 0.1 976468
06:00+4˚nnw389082 0.1 976450
09:00+4˚nnw71087100 0.1 976734
12:00+4˚nw71087100 0.6 977702
15:00+4˚w6982100 0.1 978673
18:00+2˚sw5990100 0.1 981347
21:00+1˚ssw379097 0.0 984165
5 december, sat
sat500:00+1˚s228586 0.0 98629
03:00+2˚sse4118719 0.4 987251
06:00+3˚sse4108959 2.6 989276
09:00+3˚sse4108470 0.6 991273
12:00+5˚se477535 0.6 992702
15:00+4˚e248133 0.0 993107
18:00+2˚ese358961 0.0 994102
21:00+2˚e239151 0.0 99566
6 december, sun
sun600:00+3˚ene368858 0.1 996134
03:00+4˚ene3581100 0.1 995113
06:00+3˚ne337997 0.1 99572
09:00+4˚n488368 0.1 995224
12:00+5˚n458183 0.1 995565
15:00+4˚nw2485100 0.0 994146
18:00+1˚wsw238667 0.0 99455
21:00+1˚ssw378782 0.0 994158